Hobart, OK

9:16 AM CDT on March 26, 2017 (GMT -0500)
Hobart Municipal

Weather History for KHBR - October, 2011

Change the Weather History Date:

Sunday, October 2, 2011

  Actual Average Record
Temperature  
Mean Temperature 68 °F -  
Max Temperature 88 °F 77 °F 100 °F (2000)
Min Temperature 50 °F 53 °F 45 °F (2004)
Cooling Degree Days 4    
Growing Degree Days 18 (Base 50)    
Moisture  
Dew Point 32 °F    
Average Humidity 28    
Maximum Humidity 48    
Minimum Humidity 15    
Precipitation  
Precipitation 0.00 in - - ()
Sea Level Pressure  
Sea Level Pressure 30.15 in    
Wind  
Wind Speed 9 mph (SSE)    
Max Wind Speed 20 mph    
Max Gust Speed 28 mph    
Visibility 10 miles    
Events      
Averages and records for this station are not official NWS values.
T = Trace of Precipitation, MM = Missing Value Source: NWS Daily Summary

Daily Weather History Graph

Daily Weather History Graph

Search for Another Location

Airport or City:

Trip Planner

Search our weather history database for the weather conditions in past years. The results will help you decide how hot, cold, wet, or windy it might be!

Date:

Astronomy

Oct. 02, 2011 Rise Set
Actual Time 7:31 AM CDT 7:19 PM CDT
Civil Twilight 7:06 AM CDT 7:44 PM CDT
Nautical Twilight 6:36 AM CDT 8:13 PM CDT
Astronomical Twilight 6:07 AM CDT 8:43 PM CDT
Moon 1:26 PM CDT (10/2) 11:32 PM CDT (10/2)
Length of Visible Light 12h 38m
Length of Day
11h 47m
Waxing Crescent, 35% of the Moon is Illuminated
Oct 2
Waxing Crescent
Oct 3
First Quarter
Oct 11
Full
Oct 19
Last Quarter
Oct 26
New

Hourly Weather History & Observations

Time (CDT) Temp. Dew Point Humidity Pressure Visibility Wind Dir Wind Speed Gust Speed Precip Events Conditions
12:53 AM 55.9 °F 28.0 °F 34% 30.16 in 10.0 mi East 6.9 mph - N/A   Clear
1:53 AM 55.4 °F 30.2 °F 38% 30.19 in 10.0 mi SE 6.9 mph - N/A   Clear
2:53 AM 54.0 °F 28.9 °F 38% 30.16 in 10.0 mi East 4.6 mph - N/A   Clear
3:53 AM 51.1 °F 30.0 °F 44% 30.17 in 10.0 mi Calm Calm - N/A   Clear
4:53 AM 51.8 °F 28.4 °F 41% 30.19 in 10.0 mi East 4.6 mph - N/A   Clear
5:53 AM 52.0 °F 30.9 °F 45% 30.17 in 10.0 mi ENE 3.5 mph - N/A   Clear
6:53 AM 50.0 °F 30.9 °F 48% 30.19 in 10.0 mi East 3.5 mph - N/A   Clear
7:53 AM 52.0 °F 30.9 °F 45% 30.22 in 10.0 mi ENE 3.5 mph - N/A   Clear
8:53 AM 59.0 °F 33.8 °F 39% 30.24 in 10.0 mi Calm Calm - N/A   Clear
9:53 AM 69.8 °F 33.8 °F 27% 30.25 in 10.0 mi South 11.5 mph - N/A   Clear
10:53 AM 75.0 °F 35.1 °F 23% 30.21 in 10.0 mi South 15.0 mph - N/A   Clear
11:53 AM 79.0 °F 34.0 °F 20% 30.19 in 10.0 mi SSW 19.6 mph 24.2 mph N/A   Clear
12:53 PM 82.0 °F 34.0 °F 18% 30.16 in 10.0 mi South 17.3 mph 27.6 mph N/A   Clear
1:53 PM 84.0 °F 34.0 °F 17% 30.14 in 10.0 mi South 13.8 mph 21.9 mph N/A   Clear
2:53 PM 87.1 °F 33.1 °F 15% 30.10 in 10.0 mi South 19.6 mph 25.3 mph N/A   Clear
3:53 PM 87.8 °F 33.8 °F 15% 30.12 in 10.0 mi South 17.3 mph 23.0 mph N/A   Clear
4:53 PM 87.1 °F 33.1 °F 15% 30.07 in 10.0 mi South 15.0 mph - N/A   Clear
5:53 PM 84.9 °F 33.1 °F 16% 30.06 in 10.0 mi South 17.3 mph - N/A   Clear
6:53 PM 82.0 °F 33.1 °F 17% 30.07 in 10.0 mi South 12.7 mph - N/A   Clear
7:53 PM 75.0 °F 33.1 °F 22% 30.08 in 10.0 mi SSE 10.4 mph - N/A   Clear
8:53 PM 71.1 °F 33.1 °F 25% 30.09 in 10.0 mi SSE 10.4 mph - N/A   Clear
9:53 PM 72.0 °F 35.1 °F 26% 30.09 in 10.0 mi SSE 16.1 mph - N/A   Clear
10:53 PM 71.1 °F 33.1 °F 25% 30.09 in 10.0 mi SSE 17.3 mph - N/A   Clear
11:53 PM 69.8 °F 33.8 °F 27% 30.13 in 10.0 mi South 17.3 mph - N/A   Clear